La Crosse, WI

3:38 PM CDT on May 26, 2017 (GMT -0500)
La Crosse Municipal

Weather History for KLSE - August, 2013

Change the Weather History Date:

Monday, August 19, 2013

  Actual Average Record
Temperature  
Mean Temperature 73 °F 71 °F  
Max Temperature 84 °F 81 °F 97 °F (1916)
Min Temperature 61 °F 61 °F 46 °F (2004)
Degree Days  
Heating Degree Days 0 0  
Month to date heating degree days 2 0  
Since 1 June heating degree days 58  
Since 1 July heating degree days 14 5  
Cooling Degree Days 8 7  
Month to date cooling degree days 69 144  
Year to date cooling degree days 594 631  
Since 1 June cooling degree days 534  
Growing Degree Days 22 (Base 50)    
Moisture  
Dew Point 62 °F    
Average Humidity 73    
Maximum Humidity 97    
Minimum Humidity 48    
Precipitation  
Precipitation 0.00 in 0.14 in 2.71 in (2007)
Month to date precipitation 0.93 2.73  
Year to date precipitation 27.04 22.40  
Snow  
Snow 0.00 in 0.00 in 0.00 in (2002)
Month to date snowfall 0.0 0.0  
Since 1 June snowfall T  
Since 1 July snowfall T 0.0  
Snow Depth 0.00 in    
Sea Level Pressure  
Sea Level Pressure 30.01 in    
Wind  
Wind Speed 8 mph (South)    
Max Wind Speed 17 mph    
Max Gust Speed 21 mph    
Visibility 10 miles    
Events      
T = Trace of Precipitation, MM = Missing Value Source: NWS Daily Summary

Daily Weather History Graph

Daily Weather History Graph

Search for Another Location

Airport or City:

Trip Planner

Search our weather history database for the weather conditions in past years. The results will help you decide how hot, cold, wet, or windy it might be!

Date:

Astronomy

Aug. 19, 2013 Rise Set
Actual Time 6:13 AM CDT 8:02 PM CDT
Civil Twilight 5:43 AM CDT 8:33 PM CDT
Nautical Twilight 5:05 AM CDT 9:10 PM CDT
Astronomical Twilight 4:24 AM CDT 9:50 PM CDT
Moon 6:53 PM CDT (8/19) 4:32 AM CDT (8/19)
Length of Visible Light 14h 49m
Length of Day
13h 48m
Waxing Gibbous, 97% of the Moon is Illuminated
Aug 19
Waxing Gibbous
Aug 20
Full
Aug 28
Last Quarter
Sep 5
New
Sep 12
First Quarter

Hourly Weather History & Observations

Time (CDT) Temp. Heat Index Dew Point Humidity Pressure Visibility Wind Dir Wind Speed Gust Speed Precip Events Conditions
12:53 AM 64.0 °F - 61.0 °F 90% 30.05 in 10.0 mi Calm Calm - N/A   Clear
1:53 AM 63.0 °F - 60.1 °F 90% 30.05 in 9.0 mi SSE 3.5 mph - N/A   Clear
2:53 AM 64.0 °F - 61.0 °F 90% 30.04 in 9.0 mi South 5.8 mph - N/A   Clear
3:53 AM 64.0 °F - 61.0 °F 90% 30.04 in 9.0 mi SSE 6.9 mph - N/A   Mostly Cloudy
4:53 AM 63.0 °F - 60.1 °F 90% 30.03 in 8.0 mi South 8.1 mph - N/A   Clear
5:53 AM 61.0 °F - 59.0 °F 93% 30.05 in 7.0 mi Calm Calm - N/A   Clear
6:53 AM 62.1 °F - 60.1 °F 93% 30.04 in 6.0 mi SE 5.8 mph - N/A   Clear
7:53 AM 64.9 °F - 59.0 °F 81% 30.04 in 10.0 mi SSE 8.1 mph - N/A   Clear
8:53 AM 66.9 °F - 60.1 °F 79% 30.04 in 10.0 mi South 6.9 mph - N/A   Clear
9:53 AM 71.1 °F - 60.1 °F 68% 30.04 in 10.0 mi SSE 9.2 mph - N/A   Clear
10:53 AM 73.9 °F - 61.0 °F 64% 30.04 in 10.0 mi South 6.9 mph - N/A   Clear
11:53 AM 77.0 °F - 62.1 °F 60% 30.03 in 10.0 mi South 6.9 mph - N/A   Mostly Cloudy
12:53 PM 81.0 °F 82.2 °F 63.0 °F 54% 30.01 in 10.0 mi South 9.2 mph - N/A   Clear
1:53 PM 84.0 °F 84.9 °F 63.0 °F 49% 29.99 in 10.0 mi SW 12.7 mph 19.6 mph N/A   Clear
2:53 PM 82.9 °F 84.0 °F 63.0 °F 51% 29.99 in 10.0 mi SSW 12.7 mph - N/A   Scattered Clouds
3:53 PM 84.0 °F 84.9 °F 63.0 °F 49% 29.98 in 10.0 mi SSW 10.4 mph 19.6 mph N/A   Partly Cloudy
4:53 PM 82.9 °F 84.0 °F 63.0 °F 51% 29.97 in 10.0 mi South 9.2 mph - N/A   Scattered Clouds
5:53 PM 82.9 °F 84.4 °F 64.0 °F 53% 29.96 in 10.0 mi SSW 12.7 mph - N/A   Partly Cloudy
6:53 PM 81.0 °F 82.5 °F 64.0 °F 56% 29.96 in 10.0 mi South 11.5 mph - N/A   Clear
7:53 PM 78.1 °F - 64.0 °F 62% 29.96 in 10.0 mi South 8.1 mph - N/A   Clear
8:53 PM 75.9 °F - 63.0 °F 64% 29.96 in 10.0 mi SSE 5.8 mph - N/A   Clear
9:53 PM 73.0 °F - 64.0 °F 73% 29.96 in 10.0 mi SE 4.6 mph - N/A   Clear
10:53 PM 72.0 °F - 64.0 °F 76% 29.97 in 10.0 mi SSE 5.8 mph - N/A   Clear
11:53 PM 71.1 °F - 64.0 °F 78% 29.97 in 10.0 mi SSE 5.8 mph - N/A   Clear